TimeEST,TemperatureF,Dew PointF,Humidity,Sea Level PressureIn,VisibilityMPH,Wind Direction,Wind SpeedMPH,Gust SpeedMPH,PrecipitationIn,Events,Conditions,WindDirDegrees,DateUTC
12:54 AM,21.9,17.1,82,30.35,10.0,WNW,3.5,-,0.00,,Overcast,300,2013-02-21 05:54:00
1:54 AM,21.9,18.0,85,30.35,10.0,Calm,Calm,-,N/A,,Overcast,0,2013-02-21 06:54:00
2:54 AM,21.9,18.0,85,30.35,10.0,Calm,Calm,-,N/A,,Overcast,0,2013-02-21 07:54:00
3:54 AM,23.0,16.0,74,30.35,10.0,North,4.6,-,N/A,,Overcast,10,2013-02-21 08:54:00
4:54 AM,21.9,15.1,75,30.35,10.0,NNE,4.6,-,N/A,,Overcast,30,2013-02-21 09:54:00
5:54 AM,21.9,15.1,75,30.37,10.0,NNE,6.9,-,N/A,,Overcast,30,2013-02-21 10:54:00
6:54 AM,21.9,15.1,75,30.37,10.0,NNE,6.9,-,N/A,,Overcast,30,2013-02-21 11:54:00
7:32 AM,21.2,15.8,80,30.33,10.0,NNE,10.4,-,N/A,,Overcast,30,2013-02-21 12:32:00
7:54 AM,21.0,14.0,74,30.38,10.0,NNE,12.7,-,N/A,,Overcast,30,2013-02-21 12:54:00
8:54 AM,21.0,14.0,74,30.39,10.0,ENE,6.9,-,N/A,,Overcast,60,2013-02-21 13:54:00
9:47 AM,21.2,14.0,74,30.35,10.0,ENE,6.9,-,N/A,,Overcast,70,2013-02-21 14:47:00
9:54 AM,21.0,14.0,74,30.40,10.0,Calm,Calm,-,N/A,,Overcast,0,2013-02-21 14:54:00
10:54 AM,21.9,15.1,75,30.37,10.0,ENE,5.8,-,N/A,,Overcast,60,2013-02-21 15:54:00
11:54 AM,23.0,15.1,72,30.40,10.0,SE,6.9,-,N/A,,Overcast,140,2013-02-21 16:54:00
12:54 PM,24.1,16.0,71,30.36,10.0,ESE,6.9,-,N/A,,Overcast,110,2013-02-21 17:54:00
1:54 PM,25.0,16.0,69,30.32,10.0,East,10.4,-,N/A,,Overcast,80,2013-02-21 18:54:00
2:54 PM,25.0,17.1,72,30.26,10.0,East,12.7,-,N/A,,Overcast,100,2013-02-21 19:54:00
3:54 PM,26.1,17.1,69,30.29,10.0,ENE,8.1,-,N/A,,Overcast,70,2013-02-21 20:54:00
4:54 PM,26.1,17.1,69,30.27,10.0,East,12.7,-,N/A,,Overcast,100,2013-02-21 21:54:00
5:54 PM,27.0,18.0,69,30.27,10.0,East,10.4,-,N/A,,Overcast,100,2013-02-21 22:54:00
6:54 PM,26.1,18.0,71,30.26,10.0,East,16.1,21.9,N/A,,Overcast,100,2013-02-21 23:54:00
7:54 PM,26.1,18.0,71,30.22,10.0,East,13.8,23.0,N/A,,Overcast,90,2013-02-22 00:54:00
8:54 PM,25.0,18.0,75,30.21,10.0,ESE,19.6,-,N/A,,Overcast,120,2013-02-22 01:54:00
9:54 PM,25.0,18.0,75,30.19,10.0,ESE,12.7,23.0,N/A,,Overcast,120,2013-02-22 02:54:00
10:52 PM,24.8,17.6,74,30.11,9.0,ESE,25.3,28.8,N/A,,Overcast,110,2013-02-22 03:52:00
10:54 PM,24.1,17.1,75,30.14,9.0,ESE,25.3,-,N/A,,Overcast,120,2013-02-22 03:54:00
11:54 PM,23.0,15.1,72,30.11,10.0,ESE,17.3,26.5,N/A,,Overcast,110,2013-02-22 04:54:00